Total_Precipitation_Accumulation
0.12 0.13 0.15 0.16 0.15 0.18 0.22 0.30 0.34 0.36 0.41 0.46 0.56 0.64 0.92 1.15 1.27 1.42 1.58 1.80 1.98 2.19 2.33 2.53 2.92 3.16 3.36 3.51 3.76 4.05 4.48 4.90 5.06 4.91 4.88 4.92 4.91 4.81 4.50 4.38 4.55 4.58 4.32 4.35
0.13 0.18 0.15 0.13 0.13 0.16 0.20 0.28 0.36 0.41 0.42 0.46 0.65 0.77 0.97 1.41 1.58 1.54 1.57 1.57 1.62 2.06 2.29 2.57 2.95 3.11 3.08 3.27 3.56 3.96 4.47 4.84 4.77 4.95 5.21 5.24 5.18 4.70 4.50 4.47 4.55 4.36 4.09 4.04
0.18 0.15 0.09 0.10 0.12 0.15 0.20 0.23 0.30 0.38 0.52 0.52 0.68 1.16 1.28 1.54 1.68 1.52 1.46 1.47 1.44 1.63 1.97 2.16 2.40 2.60 2.81 3.23 3.68 4.05 4.41 4.57 4.65 4.91 5.06 4.82 4.73 4.39 4.42 4.55 4.48 4.24 4.07 4.01
0.14 0.12 0.09 0.11 0.13 0.15 0.21 0.19 0.21 0.30 0.52 0.70 0.78 1.53 1.75 1.89 1.78 1.46 1.46 1.51 1.62 1.74 1.83 1.97 2.05 2.38 2.77 3.20 3.83 4.29 4.33 4.41 4.33 4.51 4.69 4.57 4.29 4.16 4.17 4.23 4.02 3.97 3.88 3.77
0.16 0.12 0.13 0.11 0.11 0.12 0.17 0.16 0.18 0.29 0.43 0.68 0.83 1.31 1.83 1.85 1.78 1.39 1.29 1.48 1.72 1.71 1.75 1.99 1.97 2.19 2.48 2.91 3.35 3.79 4.17 4.28 4.14 4.15 4.30 4.48 4.32 4.09 3.92 3.83 3.78 3.76 3.78 3.61
0.15 0.12 0.12 0.12 0.12 0.12 0.13 0.17 0.28 0.41 0.64 1.08 0.85 1.01 1.50 1.74 1.61 1.31 1.30 1.42 1.59 1.77 1.78 1.91 2.20 2.29 2.44 2.73 3.12 3.41 3.66 3.69 3.70 3.73 3.82 3.96 4.06 4.05 3.87 3.71 3.73 3.69 3.60 3.52
0.24 0.24 0.18 0.15 0.15 0.14 0.16 0.31 0.77 1.22 1.48 1.29 0.87 0.98 1.41 1.37 1.15 1.05 1.14 1.40 1.66 1.95 1.95 1.95 2.14 2.27 2.39 2.51 2.71 2.91 3.00 3.09 3.13 3.21 3.24 3.27 3.42 3.50 3.41 3.37 3.47 3.52 3.45 3.39
0.34 0.34 0.24 0.19 0.17 0.16 0.19 0.35 0.84 1.15 1.25 1.17 1.08 1.28 1.38 1.12 0.97 0.97 1.05 1.27 1.61 1.74 1.74 1.83 1.94 1.91 1.94 2.01 2.15 2.31 2.40 2.47 2.48 2.59 2.74 2.78 3.02 3.11 3.17 3.33 3.19 3.24 3.20 3.23
0.22 0.22 0.21 0.20 0.20 0.20 0.27 0.37 0.40 0.64 0.79 1.22 1.47 1.55 1.40 1.07 1.20 1.18 1.28 1.34 1.37 1.43 1.45 1.47 1.53 1.62 1.75 1.78 1.83 1.93 2.03 2.10 2.10 2.22 2.39 2.44 2.54 2.76 2.95 3.10 2.92 2.73 2.82 2.77
0.14 0.19 0.20 0.16 0.17 0.20 0.29 0.43 0.57 0.86 1.17 1.40 1.58 1.87 2.02 1.75 1.69 1.58 1.69 1.83 1.53 1.27 1.29 1.32 1.30 1.37 1.44 1.51 1.64 1.77 1.88 2.12 2.19 2.19 2.30 2.22 2.38 2.54 2.71 2.76 2.54 2.53 2.68 2.71
0.14 0.17 0.24 0.23 0.22 0.26 0.39 0.49 0.59 0.77 0.91 1.27 1.72 1.96 1.66 1.85 1.91 1.81 1.66 1.66 1.53 1.20 1.09 1.17 1.10 1.12 1.22 1.31 1.50 1.69 1.96 2.18 2.19 2.06 2.16 2.24 2.27 2.42 2.46 2.43 2.33 2.45 2.58 2.76
0.17 0.18 0.26 0.28 0.27 0.26 0.35 0.51 0.61 0.83 0.94 1.05 1.37 1.70 1.27 1.46 1.45 1.32 1.34 1.19 1.14 1.12 0.92 1.01 1.06 1.01 1.06 1.13 1.28 1.51 1.76 1.95 1.99 1.93 1.97 2.15 2.28 2.33 2.30 2.24 2.26 2.30 2.31 2.38
0.19 0.24 0.41 0.63 0.58 0.39 0.35 0.37 0.44 0.56 0.74 0.88 1.24 1.59 1.14 1.17 1.26 1.23 1.18 1.14 1.02 1.10 1.02 0.97 1.08 1.12 1.10 1.13 1.25 1.44 1.53 1.76 2.00 2.05 2.09 2.25 2.22 2.12 2.15 2.37 2.46 2.38 2.34 2.35
0.18 0.22 0.36 0.67 0.71 0.57 0.44 0.42 0.43 0.48 0.66 0.71 0.85 1.26 1.23 1.26 1.29 1.33 1.25 1.09 0.99 1.02 1.05 0.98 1.02 1.07 1.01 1.08 1.24 1.41 1.51 1.69 1.89 2.13 2.26 2.37 2.24 2.21 2.29 2.42 2.53 2.49 2.41 2.41
0.17 0.18 0.22 0.33 0.43 0.43 0.40 0.40 0.42 0.45 0.50 0.66 0.79 0.97 1.13 1.15 1.22 1.37 1.25 1.11 1.06 0.97 0.98 1.01 0.99 0.94 0.92 0.94 1.05 1.28 1.54 1.76 1.90 2.14 2.26 2.34 2.38 2.40 2.45 2.46 2.52 2.51 2.41 2.39
0.24 0.25 0.28 0.38 0.47 0.47 0.41 0.41 0.38 0.38 0.36 0.44 0.68 0.97 0.96 0.92 1.00 1.20 1.21 1.28 1.27 1.16 1.00 0.93 0.94 0.97 0.99 0.93 0.96 1.06 1.30 1.58 1.77 1.97 2.11 2.18 2.32 2.49 2.51 2.48 2.52 2.51 2.54 2.57
0.30 0.36 0.47 0.52 0.56 0.65 0.66 0.52 0.52 0.51 0.48 0.55 0.83 1.00 0.84 0.84 0.92 1.03 1.07 1.20 1.18 1.16 1.25 1.21 1.11 1.18 1.10 1.07 1.09 1.14 1.22 1.47 1.70 1.88 2.01 2.12 2.26 2.40 2.42 2.37 2.49 2.59 2.55 2.48
0.36 0.45 0.52 0.55 0.76 1.06 0.81 0.53 0.47 0.50 0.57 0.56 0.65 0.73 0.71 0.79 0.84 0.98 1.15 1.17 1.08 0.98 1.03 1.19 1.26 1.32 1.30 1.23 1.30 1.31 1.36 1.49 1.69 1.90 2.03 2.13 2.29 2.32 2.35 2.36 2.30 2.31 2.33 2.32
0.35 0.51 0.61 0.70 0.86 0.89 0.78 0.64 0.62 0.64 0.74 0.59 0.60 0.67 0.74 0.84 0.97 1.19 1.08 1.02 1.04 0.95 1.02 1.08 1.14 1.24 1.43 1.46 1.47 1.50 1.61 1.75 1.78 1.91 2.09 2.23 2.29 2.29 2.30 2.31 2.25 2.27 2.29 2.24
0.38 0.51 0.70 0.77 1.05 1.16 0.95 0.70 0.71 0.84 1.29 0.88 0.76 0.87 0.98 1.00 1.34 1.47 1.08 1.08 1.17 1.00 0.97 1.07 1.17 1.22 1.37 1.51 1.60 1.64 1.74 1.92 1.92 1.97 2.09 2.18 2.24 2.34 2.27 2.37 2.46 2.45 2.38 2.32
0.73 0.77 0.80 0.85 1.12 1.24 0.88 0.70 0.84 1.59 1.82 1.09 0.97 1.05 1.17 1.26 1.28 1.18 1.03 1.20 1.33 1.12 1.04 1.01 1.11 1.36 1.48 1.56 1.71 1.79 1.76 1.81 1.86 2.01 2.13 2.21 2.29 2.37 2.34 2.41 2.49 2.53 2.49 2.53
1.09 1.08 1.03 1.13 1.50 1.67 1.00 0.93 1.34 1.60 1.24 1.15 1.11 1.09 1.11 1.08 1.05 1.00 0.96 1.08 1.23 1.27 1.32 1.36 1.44 1.54 1.58 1.63 1.80 1.94 1.99 1.93 2.03 2.12 2.13 2.23 2.37 2.20 2.19 2.45 2.55 2.60 2.63 2.58
1.24 1.31 1.39 1.47 1.64 1.50 1.34 1.38 1.41 1.29 1.35 1.29 1.17 1.14 1.11 1.10 1.09 1.11 1.07 1.03 1.15 1.32 1.37 1.42 1.48 1.51 1.59 1.70 1.81 2.04 2.11 2.08 2.09 2.19 2.25 2.30 2.35 2.43 2.49 2.53 2.61 2.58 2.53 2.48
1.41 1.28 1.56 1.79 1.74 1.56 1.57 1.52 1.46 1.41 1.42 1.34 1.27 1.29 1.22 1.25 1.38 1.36 1.30 1.27 1.18 1.19 1.23 1.29 1.44 1.50 1.67 1.87 2.02 2.23 2.26 2.21 2.23 2.34 2.47 2.48 2.43 2.48 2.64 2.77 2.73 2.63 2.49 2.54
1.69 1.67 1.88 2.20 2.13 1.86 1.69 1.51 1.41 1.34 1.28 1.21 1.22 1.31 1.35 1.30 1.42 1.45 1.55 1.58 1.50 1.38 1.36 1.47 1.65 1.77 1.88 1.99 2.06 2.24 2.39 2.47 2.56 2.60 2.62 2.65 2.65 2.70 2.79 2.76 2.69 2.67 2.61 2.54
1.76 2.04 2.38 2.56 2.16 1.96 1.89 1.67 1.60 1.39 1.28 1.26 1.27 1.27 1.34 1.33 1.40 1.39 1.50 1.65 1.65 1.66 1.72 1.71 1.72 1.90 2.00 2.01 2.11 2.26 2.49 2.75 2.96 2.91 2.77 2.79 2.86 2.88 2.82 2.83 2.65 2.50 2.40 2.32